Location: Roc des P�zouls
(43.9667°N, 3.5500°E)
Time: 02:43:12
(UTC+00:00)

NOAA 6 - Pass Details

Date: 14 November 2019
Orbit: 771 x 788 km, 98.6° (Epoch: 12 December)

Event Time Altitude Azimuth Distance (km) Brightness Sun altitude
Rises 05:46:02 0° 10° (N) 3,267 7.2 -9.7°
Reaches altitude 10° 05:48:22 10° 8° (N) 2,333 6.4 -9.3°
Maximum altitude 05:53:26 63° 288° (WNW) 861 4.0 -8.5°
Drops below altitude 10° 05:58:28 10° 208° (SSW) 2,310 6.4 -7.6°
Sets 06:00:46 0° 205° (SSW) 3,233 7.2 -7.2°
